Location: Rimouski
(48.4330°N, 68.5170°W)
Time: 04:53:02
(UTC-05:00)

Daily predictions for brighter satellites

Satellite Brightness Start Highest point End
(mag) Time Altitude Azimuth Time Altitude Azimuth Time Altitude Azimuth
CENTAUR R/B 4.1 02:54:07 31° ENE 02:54:07 31° ENE 02:57:47 10° NE
ATLAS 3B R/B 4.4 03:14:37 23° NNE 03:14:37 23° NNE 03:18:12 10° NE
CZ-4C R/B 4.4 03:27:07 20° NNE 03:27:07 20° NNE 03:30:40 10° NE
Cosmos 2369 Rocket 3.6 03:32:39 32° NE 03:32:54 32° NE 03:37:59 10° ESE
ATLAS 5 CENTAUR R/B 4.4 03:38:38 15° NNE 03:38:38 15° NNE 03:40:29 10° NE
Cosmos 2219 Rocket 4.4 03:46:50 14° N 03:46:50 14° N 03:47:44 10° NNE
Meteor 1-20 Rocket 4.4 04:03:19 59° SE 04:04:03 66° E 04:09:30 10° NNE
Cosmos 2333 Rocket 4.1 04:10:27 17° N 04:10:27 17° N 04:12:03 10° NNE
Cosmos 1943 Rocket 3.7 04:09:09 22° N 04:11:34 30° NE 04:16:22 10° ESE
Cosmos 2056 Rocket 3.8 04:19:13 55° SSE 04:19:13 55° SSE 04:23:09 10° SSE
SL-16 R/B 2.9 04:27:06 40° N 04:27:06 40° N 04:31:02 10° NNE
Lacrosse 5 rocket 3.2 04:26:51 23° NNE 04:26:51 23° NNE 04:29:14 10° NE
USA 215 4.3 04:19:24 10° ENE 04:25:32 42° SE 04:31:39 10° SSW
Okean 1 Rocket 4.1 04:22:16 10° SSE 04:26:26 44° E 04:30:35 10° NNE
Lacrosse 4 Rocket 3.3 04:26:26 21° NNE 04:27:19 23° NE 04:30:37 10° E
ADEOS II 3.6 04:23:01 10° N 04:25:05 24° N 04:25:05 24° N
Cosmos 1624 Rocket 4.3 04:32:25 52° SSW 04:32:25 52° SSW 04:36:38 10° S
COSMO-SKYMED 1 2.7 04:29:30 10° SSE 04:33:49 72° ENE 04:34:13 66° NNE
Cosmos 44 Rocket 4.0 04:34:58 17° SSW 04:38:51 56° ESE 04:43:50 10° NE
Meteor 1-19 Rocket 4.3 04:35:06 15° N 04:40:05 80° ENE 04:45:52 10° SSE
CENTAUR R/B 2.9 04:41:19 43° NW 04:41:57 44° NNW 04:48:52 10° NE
Cosmos 2263 4.4 04:40:17 31° NNW 04:43:00 68° ENE 04:48:35 10° SE
Cosmos 1602 4.0 04:41:11 10° S 04:45:07 70° E 04:49:06 10° NNE
Okean 1-7 Rocket 3.6 04:43:57 44° N 04:45:17 79° E 04:49:40 10° SSE
SL-08 ROCKET BODY 4.3 04:41:16 10° SSW 04:47:08 59° WNW 04:52:57 10° N
Lacrosse 5 2.4 04:44:48 27° SSW 04:47:28 58° SE 04:52:29 10° ENE
Cosmos 1900 4.5 04:47:01 44° NNW 04:48:30 69° NE 04:53:25 10° SE
Meteor 1-25 Rocket 4.4 04:48:38 50° W 04:49:02 51° WNW 04:54:42 10° N
Cosmos 192 4.4 04:44:32 10° SSW 04:49:26 79° ESE 04:54:22 10° NNE
Nadezhda 3 Rocket 3.9 04:44:05 10° N 04:50:30 88° W 04:56:53 10° S
Cosmos 1300 Rocket 3.4 04:46:18 10° S 04:50:44 85° WNW 04:55:09 10° N
Meteor 1-11 Rocket 3.9 04:48:15 10° S 04:54:03 75° E 04:59:46 10° NNE
Cosmos 2237 Rocket 3.9 04:56:10 18° NNW 04:56:10 18° NNW 04:58:31 10° N
Meteor 1-28 Rocket 3.5 04:53:50 10° SSE 04:57:35 68° ENE 04:59:23 29° N
Helios 1B rocket 4.5 04:55:32 10° ESE 04:59:00 26° ENE 05:02:29 10° N
Meteor 1-13 Rocket 4.3 04:56:15 19° NNW 05:00:32 62° W 05:06:23 10° S
Cosmos 1340 3.7 05:01:14 14° N 05:04:17 45° ENE 05:07:55 10° SSE
Cosmos 839 Rocket 4.3 05:00:37 21° NNW 05:05:24 68° NE 05:11:31 10° SE
ATLAS 3B R/B 4.2 05:01:52 17° NNW 05:05:30 25° NNE 05:11:01 10° ENE
Meteor 1-23 Rocket 4.2 05:00:17 10° N 05:05:52 80° ENE 05:11:26 10° SSE
Cosmos 1452 Rocket 3.4 05:04:23 28° NNW 05:07:14 76° WSW 05:12:30 10° SSE
Meteor 2-13 Rocket 4.3 05:06:02 10° SSW 05:12:12 79° W 05:18:24 10° N
Cosmos 2074 Rocket 4.3 05:06:56 10° SW 05:12:48 41° WNW 05:18:41 10° N
Tiangong 2 2.7 05:13:30 23° SSW 05:13:39 23° SSW 05:16:14 10° SE
Meteor 2-4 Rocket 3.6 05:08:32 10° NNW 05:14:02 77° W 05:19:41 10° S
CZ-4C R/B 4.1 05:12:17 15° NNW 05:16:20 27° NNE 05:22:19 10° ENE
Cosmos 2369 Rocket 2.3 05:14:29 29° NW 05:17:12 53° WSW 05:22:43 10° S
Cosmos 2341 Rocket 3.9 05:14:41 10° S 05:20:58 84° W 05:27:16 10° N
SKYMED 2 4.0 05:17:58 10° SSW 05:22:01 38° W 05:22:50 34° WNW
ATLAS 5 CENTAUR R/B 4.0 05:20:11 14° NNW 05:23:25 21° NNE 05:27:55 10° ENE
Cosmos 1603 3.9 05:19:00 15° SW 05:23:31 48° NW 05:29:00 10° NNE
Okean 2 3.4 05:22:48 10° N 05:27:01 88° E 05:31:11 10° S
NOAA 6 4.2 05:22:13 10° N 05:27:07 46° WNW 05:31:59 10° SW
Meteor 1-5 Rocket 4.4 05:22:13 10° S 05:27:30 68° E 05:32:47 10° NNE
Cosmos 2219 Rocket 4.2 05:28:34 11° NNW 05:28:34 11° NNW 05:29:44 10° NNW
Cosmos 44 3.5 05:28:11 10° SW 05:33:33 88° ESE 05:38:42 10° NE
SL-23 DEB 3.8 05:33:08 34° W 05:34:07 48° SSW 05:37:33 10° SE
SL-24 R/B 4.4 05:32:06 10° N 05:37:44 73° WNW 05:42:26 10° SSW
PAYLOAD A 4.4 05:35:31 10° NNE 05:40:54 72° ESE 05:46:20 10° S
Cosmos 1025 Rocket 3.4 05:37:54 14° NNW 05:41:19 42° W 05:45:25 10° SSW
CZ-4 R/B 1.9 05:37:25 10° NNE 05:41:21 59° ESE 05:45:12 10° S
Cosmos 1536 3.1 05:39:09 10° SSW 05:42:58 43° WNW 05:46:51 10° N
USA 129 2.9 05:41:29 10° S 05:42:56 29° SW 05:42:56 29° SW
USA 229 DEB 4.0 05:37:30 10° SSW 05:44:20 72° SE 05:51:19 10° NE
USA 229 4.0 05:37:37 10° SSW 05:44:27 71° SE 05:51:24 10° NE
Cosmos 1943 3.2 05:40:51 10° SW 05:46:26 64° WNW 05:52:06 10° NNE
Cosmos 2154 Rocket 4.3 05:41:05 10° SW 05:46:58 44° WNW 05:52:53 10° N
YAOGAN 1 3.6 05:43:32 10° NNE 05:47:46 49° E 05:51:58 10° S
Cosmos 1269 Rocket 4.3 05:45:27 10° SSW 05:50:43 74° ESE 05:56:03 10° NNE
Cosmos 1633 3.7 05:50:06 10° WSW 05:52:58 22° WNW 05:55:51 10° NNW
IRS-1A Rocket 4.3 05:47:36 10° NNE 05:53:20 88° WNW 05:59:09 10° SSW
Meteor 2-8 Rocket 4.5 05:47:56 10° NNW 05:53:58 60° W 06:00:01 10° S
Meteor 2-19 Rocket 4.4 05:48:27 10° S 05:54:35 87° W 06:00:43 10° N
Cosmos 1515 4.0 05:50:52 10° N 05:54:44 70° E 05:58:33 10° SSE
Cosmos 1943 Rocket 2.3 05:50:43 12° NW 05:55:36 54° WSW 06:00:56 10° S
SJ-12 4.1 05:52:01 10° NNE 05:56:12 78° ESE 06:00:21 10° S
Cosmos 1602 Rocket 4.1 05:53:54 10° N 05:58:22 62° ENE 06:02:47 10° SSE
Abrixas rocket 2.5 05:55:52 13° WSW 05:58:49 69° SSE 06:02:09 10° E
Cosmos 1420 Rocket 4.3 05:55:33 11° NW 06:00:25 45° WSW 06:05:22 10° S
Cosmos 468 4.5 05:55:35 10° SSW 06:00:50 72° WNW 06:06:10 10° NNE
Okean 1 Rocket 4.2 06:01:12 10° WSW 06:04:34 21° WNW 06:07:55 10° NNW
Lacrosse 5 rocket 2.7 06:02:35 13° NW 06:05:45 31° NNE 06:09:45 10° ENE
Lacrosse 4 Rocket 1.5 06:02:48 13° NW 06:06:21 54° WSW 06:10:20 10° SSE
Cosmos 1544 Rocket 3.5 06:02:13 10° SSW 06:06:33 64° WNW 06:10:57 10° N
ADEOS II 4.0 06:05:37 10° NW 06:06:01 10° NW 06:06:01 10° NW
USA 215 3.2 06:02:20 10° NE 06:08:52 76° NNW 06:15:22 10° WSW
Ariane Rocket 3.5 06:05:30 10° N 06:10:06 36° WNW 06:14:41 10° SW
COSMO-SKYMED 1 4.3 06:08:20 10° WSW 06:10:30 13° W 06:11:25 13° WNW
SL-16 R/B 3.8 06:09:01 12° NW 06:11:00 14° NNW 06:13:59 10° N
CZ-2C R/B 2.5 06:08:05 10° NNE 06:13:18 87° WNW 06:18:23 10° SSW
SPOT 3 Rocket 3.7 06:08:14 10° NNE 06:13:26 84° ESE 06:18:35 10° SSW
SL-8 Rocket 4.1 06:10:08 10° SSW 06:16:15 54° WNW 06:22:21 10° N
Cosmos 1331 Rocket 4.2 06:11:41 10° NNW 06:16:53 75° ENE 06:22:02 10° SSE
Cosmos 1656 Rocket 3.7 06:12:38 10° NNW 06:18:17 75° WSW 06:23:57 10° SSE
Cosmos 1048 Rocket 3.9 06:13:15 10° SSW 06:18:23 74° WNW 06:23:37 10° NNE
Cosmos 44 Rocket 4.1 06:16:02 10° WSW 06:20:40 33° NW 06:25:15 10° NNE
AQUARIUS 4.1 06:17:07 10° N 06:21:37 72° WNW 06:26:05 10° SSW
Cosmos 1743 4.1 06:19:47 10° SSE 06:23:30 43° E 06:27:14 10° NNE
Cosmos 1980 Rocket 4.4 06:20:44 10° N 06:24:01 15° NE 06:27:17 10° ENE
Meteor 1-29 3.3 06:22:40 10° S 06:25:55 45° W 06:29:12 10° NNW
Cosmos 1867 4.3 06:21:21 10° NNW 06:26:43 52° NE 06:32:02 10° ESE
Cosmos 1500 3.1 06:23:10 10° S 06:26:56 86° WNW 06:30:44 10° N
Cosmos 1066 Rocket 4.1 06:21:36 10° NNW 06:27:00 81° W 06:32:29 10° S
Cosmos 1975 2.8 06:24:06 10° SSW 06:28:11 69° W 06:32:19 10° N
Cosmos 2366 rocket 4.1 06:22:32 10° SSW 06:28:45 60° WNW 06:35:04 10° N
Lacrosse 5 2.3 06:25:41 10° W 06:30:37 46° NNW 06:35:33 10° NE
MSX 4.0 06:25:05 10° NNE 06:30:52 81° ESE 06:36:37 10° SSW
Cosmos 405 Rocket 2.7 06:29:53 10° N 06:33:44 86° ENE 06:37:28 10° SSE
Helios 1B rocket 3.2 06:30:25 10° SSW 06:34:12 34° W 06:38:01 10° NNW
CENTAUR R/B 4.0 06:28:59 10° WNW 06:34:34 25° N 06:40:41 10° NE
Cosmos 1825 Rocket 4.5 06:30:20 10° N 06:34:42 51° ENE 06:39:01 10° SSE
Cosmos 2218 Rocket 4.3 06:31:02 10° SSW 06:37:10 47° WNW 06:43:19 10° N
MOS 1 4.3 06:32:05 10° N 06:37:42 67° WNW 06:43:18 10° SSW
IDEFIX/ARIANE 42P 2.7 06:34:19 10° N 06:39:24 57° WNW 06:44:29 10° SSW
Cosmos 1340 4.4 06:37:22 10° NW 06:39:37 15° W 06:41:53 10° SW
Cosmos 1626 Rocket 3.8 06:35:57 10° NNW 06:40:15 49° W 06:44:29 10° SSW
